LELN

Details ICAO LELN (LEN)
Name Leon
Region Spain
Timezone Europe/Madrid (UTC+2.0)
Plans Departing 85
Arriving 82
Stats Elevation 3,006 ft / 916 m (AMSL)
Location 42.591935° -5.654188°
Runways 2
Magnetic Variation 1.379° W
Sunrise 2018-05-25 04:53:25 UTC / 2018-05-25 06:53:25 Local
Sunset 2018-05-25 19:48:34 UTC / 2018-05-25 21:48:34 Local
Advertisement - Login to hide

Runways

ID Width Length Bearing (true) Bearing (mag) Surface Threshold Offset Overrun Length
05 148 ft / 45 m 9,836 ft / 2,998 m 45.23° 46.61° Asphalt 0 ft / 0 m 210 ft / 64 m
06 328 ft / 100 m 3,602 ft / 1,098 m 59.75° 61.13° Dirt 0 ft / 0 m 0 ft / 0 m
23 148 ft / 45 m 9,836 ft / 2,998 m 225.25° 226.63° Asphalt 0 ft / 0 m 190 ft / 58 m
24 328 ft / 100 m 3,602 ft / 1,098 m 239.75° 241.13° Dirt 0 ft / 0 m 0 ft / 0 m

Approach Navaids

Runway Type Ident Frequency Range Bearing (true) Bearing (mag) Slope Elevation
23 Localiser ILE 109.50 MHz 18 nm / 33 km 225.22° 226.60° - 3,006 ft / 916 m (AMSL)
23 Glidescope ILE 109.50 MHz 10 nm / 19 km 225.24° 226.61° 3.00° 3,026 ft / 922 m (AMSL)

Map

Weather


0- 5 10 15 20 25 30 35+ Temperature / ° C

Clouds and Precipitation
Forecast for 2018-05-25 18:00 UTC. Updated 3 hours ago

Ground ~20,000 ft ~40,000 ft Winds

METAR

LELN 251900Z 03003KT 350V060 9999 FEW012 SCT045 12/11 Q1014

TAF

Not found

Frequencies

Tower 122.10 MHz TWR
Approach 122.10 MHz APP
Warning: Do not use this data for real-world aviation or navigation. No guarantee of current accuracy is given.